Location: Unspecified
(41.5000°N, 0.0000°E)
Time: 02:58:47
(UTC+00:00)

Vanguard 1 - Pass Details

Date: 21 June 2019
Orbit: 653 x 3830 km, 34.3° (Epoch: 18 July)

Event Time Altitude Azimuth Distance (km) Brightness Sun altitude
Exits shadow 00:55:10 26° 171° (S) 4,849 13.0 -23.9°
Maximum altitude 00:59:51 29° 150° (SSE) 4,338 12.9 -23.7°
Drops below altitude 10° 01:10:58 10° 97° (E) 4,635 13.6 -23.1°
Sets 01:14:32 0° 86° (E) 5,221 14.1 -22.9°
